OneWeb SL0515

operational
NORAD ID: 54133 Int'l Des: 2022-138 Owner: ONEWEBN Country: UK Constellation: oneweb
LEOCIRCULARPOLARONEWEB_TYPE

About OneWeb SL0515

Description loading...

Live Position

Loading 3D Globe...

Upcoming Passes

Altitude History

Altitude vs Time

uPlot chart will show altitude changes over time

Two-Line Element Set

1 54133U 22138W 26094.55902293 .00000128 00000-0 28206-3 0 9990
2 54133 87.9146 289.1257 0001563 60.7227 299.4062 13.20772058169582
Epoch: Apr 4, 2026 • Age: 15 hours

Current Status

Altitude 1193.6 km
Velocity 7.26 km/s
Sub-Earth Point 72.50°N, 158.65°W
Launch Date Oct 22, 2022
Age 3.4 years
Type internet

Technical Details

Classification Payload
Mass 148.00 kg
Dry Mass 140.00 kg
Total Mass 148.00 kg
Length 1.30 m
Diameter 1.00 m
Span 5.00 m
Shape Trapezoid+2 pan
Manufacturer ONEWUS
Bus Type ARROW
Phase Status In Orbit
Owner/State ONEWEBN/UK

Large Constellations

Loading constellations...